Weather History for Aitkin, MN

Change the Weather History Date:

Wednesday, July 10, 2013

  Actual Average Record
Temperature  
Mean Temperature 68 °F -  
Max Temperature 78 °F 80 °F 97 °F (1980)
Min Temperature 55 °F 55 °F 37 °F (1996)
Cooling Degree Days 2    
Growing Degree Days 18 (Base 50)    
Moisture  
Dew Point 55 °F    
Average Humidity 63    
Maximum Humidity 88    
Minimum Humidity 42    
Precipitation  
Precipitation 0.00 in - - ()
Sea Level Pressure  
Sea Level Pressure 30.01 in    
Wind  
Wind Speed 3 mph (NW)    
Max Wind Speed 13 mph    
Max Gust Speed 20 mph    
Visibility 10 miles    
Events      
Averages and records for this station are not official NWS values.
T = Trace of Precipitation, MM = Missing Value Source: NWS Daily Summary

Daily Weather History Graph

Daily Weather History Graph

Search for Another Location

Airport:

Trip Planner

Search our weather history database for the weather conditions in past years. The results will help you decide how hot, cold, wet, or windy it might be!

Date:

Astronomy

Jul. 10, 2013 Rise Set
Actual Time 5:32 AM CDT 9:07 PM CDT
Civil Twilight 4:54 AM CDT 9:45 PM CDT
Nautical Twilight 4:03 AM CDT 10:36 PM CDT
Astronomical Twilight 2:54 AM CDT 11:43 PM CDT
Moon 8:05 AM CDT (7/10) 10:04 PM CDT (7/10)
Length of Visible Light 16h 51m
Length of Day
15h 35m
Waxing Crescent, 5% of the Moon is Illuminated
Jul 10
Waxing Crescent
Jul 15
First Quarter
Jul 22
Full
Jul 29
Last Quarter
Aug 6
New

Hourly Weather History & Observations

Time (CDT) Temp. Dew Point Humidity Pressure Visibility Wind Dir Wind Speed Gust Speed Precip Events Conditions
12:12 AM 64.4 °F 55.4 °F 73% 29.95 in 10.0 mi Calm Calm - N/A   Clear
12:33 AM 64.4 °F 55.4 °F 73% 29.95 in 10.0 mi NW 3.5 mph - N/A   Clear
12:52 AM 62.6 °F 53.6 °F 72% 29.95 in 10.0 mi Calm Calm - N/A   Clear
1:13 AM 62.6 °F 53.6 °F 72% 29.95 in 10.0 mi Calm Calm - N/A   Scattered Clouds
1:33 AM 60.8 °F 53.6 °F 77% 29.96 in 10.0 mi West 3.5 mph - N/A   Scattered Clouds
1:53 AM 60.8 °F 53.6 °F 77% 29.96 in 10.0 mi West 3.5 mph - N/A   Clear
2:13 AM 60.8 °F 53.6 °F 77% 29.97 in 10.0 mi West 3.5 mph - N/A   Clear
2:33 AM 60.8 °F 53.6 °F 77% 29.97 in 10.0 mi Calm Calm - N/A   Clear
2:53 AM 60.8 °F 53.6 °F 77% 29.97 in 10.0 mi West 3.5 mph - N/A   Clear
3:12 AM 60.8 °F 53.6 °F 77% 29.97 in 10.0 mi West 3.5 mph - N/A   Clear
3:33 AM 60.8 °F 53.6 °F 77% 29.97 in 10.0 mi Calm Calm - N/A   Clear
3:53 AM 60.8 °F 53.6 °F 77% 29.97 in 10.0 mi West 3.5 mph - N/A   Clear
4:13 AM 60.8 °F 53.6 °F 77% 29.99 in 10.0 mi West 3.5 mph - N/A   Clear
4:33 AM 60.8 °F 53.6 °F 77% 29.99 in 10.0 mi West 3.5 mph - N/A   Clear
4:53 AM 60.8 °F 53.6 °F 77% 29.99 in 10.0 mi West 3.5 mph - N/A   Clear
5:13 AM 60.8 °F 53.6 °F 77% 30.00 in 10.0 mi Calm Calm - N/A   Clear
5:33 AM 59.0 °F 53.6 °F 82% 30.00 in 10.0 mi West 3.5 mph - N/A   Clear
5:52 AM 59.0 °F 53.6 °F 82% 30.00 in 10.0 mi West 3.5 mph - N/A   Clear
6:13 AM 59.0 °F 53.6 °F 82% 30.01 in 7.0 mi Calm Calm - N/A   Clear
6:33 AM 60.8 °F 53.6 °F 77% 30.01 in 7.0 mi Calm Calm - N/A   Clear
6:52 AM 60.8 °F 53.6 °F 77% 30.01 in 7.0 mi Calm Calm - N/A   Clear
7:13 AM 62.6 °F 55.4 °F 77% 30.02 in 10.0 mi Calm Calm - N/A   Clear
7:33 AM 62.6 °F 55.4 °F 77% 30.02 in 10.0 mi West 3.5 mph - N/A   Clear
7:52 AM 64.4 °F 55.4 °F 73% 30.03 in 10.0 mi Calm Calm - N/A   Clear
8:13 AM 66.2 °F 57.2 °F 73% 30.03 in 10.0 mi WNW 4.6 mph - N/A   Clear
8:33 AM 66.2 °F 57.2 °F 73% 30.03 in 10.0 mi WNW 5.8 mph - N/A   Clear
8:52 AM 68.0 °F 57.2 °F 68% 30.04 in 10.0 mi NW 6.9 mph - N/A   Clear
9:13 AM 69.8 °F 57.2 °F 64% 30.04 in 10.0 mi WNW 5.8 mph - N/A   Clear
9:32 AM 69.8 °F 57.2 °F 64% 30.04 in 10.0 mi NW 5.8 mph - N/A   Clear
9:53 AM 71.6 °F 57.2 °F 60% 30.05 in 10.0 mi WNW 6.9 mph - N/A   Clear
10:13 AM 71.6 °F 57.2 °F 60% 30.05 in 10.0 mi NW 5.8 mph - N/A   Clear
10:32 AM 71.6 °F 57.2 °F 60% 30.04 in 10.0 mi NW 5.8 mph - N/A   Clear
10:53 AM 73.4 °F 55.4 °F 53% 30.04 in 10.0 mi NW 4.6 mph - N/A   Clear
11:13 AM 73.4 °F 55.4 °F 53% 30.04 in 10.0 mi WNW 4.6 mph - N/A   Clear
11:32 AM 75.2 °F 55.4 °F 50% 30.04 in 10.0 mi WNW 8.1 mph - N/A   Clear
11:53 AM 75.2 °F 55.4 °F 50% 30.04 in 10.0 mi NW 9.2 mph - N/A   Scattered Clouds
12:13 PM 75.2 °F 53.6 °F 47% 30.05 in 10.0 mi NW 9.2 mph - N/A   Scattered Clouds
12:32 PM 77.0 °F 55.4 °F 47% 30.04 in 10.0 mi NNW 11.5 mph 16.1 mph N/A   Scattered Clouds
12:53 PM 77.0 °F 53.6 °F 44% 30.04 in 10.0 mi NW 11.5 mph 16.1 mph N/A   Scattered Clouds
1:13 PM 77.0 °F 53.6 °F 44% 30.04 in 10.0 mi NNW 12.7 mph 19.6 mph N/A   Scattered Clouds
1:32 PM 75.2 °F 53.6 °F 47% 30.04 in 10.0 mi NNW 8.1 mph 16.1 mph N/A   Scattered Clouds
1:53 PM 78.8 °F 55.4 °F 44% 30.03 in 10.0 mi NW 5.8 mph - N/A   Scattered Clouds
2:13 PM 78.8 °F 55.4 °F 44% 30.03 in 10.0 mi NNW 9.2 mph - N/A   Scattered Clouds
2:32 PM 78.8 °F 55.4 °F 44% 30.03 in 10.0 mi NW 6.9 mph - N/A   Scattered Clouds
2:53 PM 78.8 °F 53.6 °F 42% 30.02 in 10.0 mi NW 6.9 mph 16.1 mph N/A   Scattered Clouds
3:13 PM 78.8 °F 55.4 °F 44% 30.02 in 10.0 mi NW 4.6 mph - N/A   Scattered Clouds
3:32 PM 78.8 °F 55.4 °F 44% 30.01 in 7.0 mi NW 8.1 mph - N/A   Clear
3:53 PM 78.8 °F 53.6 °F 42% 30.01 in 10.0 mi WNW 4.6 mph - N/A   Unknown
4:13 PM 78.8 °F 55.4 °F 44% 30.01 in 10.0 mi NW 8.1 mph - N/A   Clear
4:33 PM 78.8 °F 55.4 °F 44% 30.00 in 10.0 mi NNW 6.9 mph - N/A   Clear
4:53 PM 78.8 °F 53.6 °F 42% 30.00 in 10.0 mi NW 4.6 mph - N/A   Clear
5:12 PM 78.8 °F 53.6 °F 42% 30.00 in 10.0 mi WNW 4.6 mph - N/A   Clear
5:33 PM 78.8 °F 55.4 °F 44% 30.00 in 10.0 mi Calm Calm - N/A   Clear
5:53 PM 78.8 °F 55.4 °F 44% 30.00 in 10.0 mi NW 3.5 mph - N/A   Scattered Clouds
6:12 PM 78.8 °F 55.4 °F 44% 30.00 in 10.0 mi NW 4.6 mph - N/A   Scattered Clouds
6:33 PM 77.0 °F 55.4 °F 47% 30.00 in 10.0 mi Calm Calm - N/A   Scattered Clouds
6:53 PM 77.0 °F 55.4 °F 47% 30.01 in 10.0 mi NW 3.5 mph - N/A   Clear
7:12 PM 75.2 °F 55.4 °F 50% 30.01 in 10.0 mi Calm Calm - N/A   Clear
7:33 PM 75.2 °F 55.4 °F 50% 30.01 in 10.0 mi Calm Calm - N/A   Clear
7:53 PM 73.4 °F 55.4 °F 53% 30.02 in 10.0 mi Calm Calm - N/A   Clear
8:12 PM 73.4 °F 55.4 °F 53% 30.02 in 10.0 mi Calm Calm - N/A   Clear
8:33 PM 69.8 °F 57.2 °F 64% 30.02 in 10.0 mi Calm Calm - N/A   Clear
8:53 PM 69.8 °F 55.4 °F 60% 30.03 in 10.0 mi North 4.6 mph - N/A   Clear
9:12 PM 66.2 °F 55.4 °F 68% 30.03 in 10.0 mi North 3.5 mph - N/A   Clear
9:33 PM 60.8 °F 53.6 °F 77% 30.04 in 10.0 mi Calm Calm - N/A   Clear
9:53 PM 60.8 °F 53.6 °F 77% 30.04 in 10.0 mi Calm Calm - N/A   Clear
10:12 PM 60.8 °F 53.6 °F 77% 30.04 in 10.0 mi Calm Calm - N/A   Clear
10:33 PM 57.2 °F 53.6 °F 88% 30.05 in 10.0 mi Calm Calm - N/A   Clear
10:53 PM 57.2 °F 53.6 °F 88% 30.05 in 10.0 mi Calm Calm - N/A   Clear
11:12 PM 57.2 °F 51.8 °F 82% 30.05 in 7.0 mi Calm Calm - N/A   Clear
11:33 PM 57.2 °F 51.8 °F 82% 30.06 in 5.0 mi Calm Calm - N/A   Haze
11:53 PM 55.4 °F 50.0 °F 82% 30.06 in 7.0 mi Calm Calm - N/A   Clear